Location: Molino di Ancona
(43.6167°N, 13.3667°E)
Time: 01:48:09
(UTC+00:00)

Cosmos 1943 - Visible Passes

Search period start: 03 April 2020 00:00
Search period end: 13 April 2020 00:00
Orbit: 832 x 851 km, 71.0° (Epoch: 02 April)

Date Brightness Start Highest point End Pass type
(mag) Time Alt. Az. Time Alt. Az. Time Alt. Az.
03 Apr 4.6 04:05:16 10° NNW 04:10:44 44° ENE 04:16:09 10° SE visible
03 Apr 3.1 18:57:25 10° SSW 19:03:01 70° ESE 19:08:41 10° NNE visible
03 Apr 5.6 20:43:24 10° W 20:47:39 21° NW 20:51:55 10° N visible
04 Apr 4.7 03:50:14 10° NNW 03:55:39 42° ENE 04:01:03 10° SE visible
04 Apr 3.1 18:42:23 10° SSW 18:47:58 67° ESE 18:53:38 10° NNE visible
04 Apr 5.6 20:28:12 10° W 20:32:33 22° NW 20:36:56 10° N visible
05 Apr 4.7 03:35:12 10° NNW 03:40:35 40° ENE 03:45:56 10° SE visible
05 Apr 3.2 18:27:22 10° S 18:32:56 63° ESE 18:38:34 10° NNE visible
05 Apr 5.5 20:13:01 10° WSW 20:17:27 23° NW 20:21:56 10° N visible
06 Apr 4.8 03:20:11 10° NNW 03:25:31 39° ENE 03:30:48 10° SE visible
06 Apr 3.2 18:12:21 10° S 18:17:53 60° ESE 18:23:29 10° NNE visible
06 Apr 5.5 19:57:50 10° WSW 20:02:21 24° NW 20:06:56 10° N visible
07 Apr 4.8 03:05:09 10° N 03:10:26 37° NE 03:15:41 10° ESE visible
07 Apr 5.5 19:42:40 10° WSW 19:47:16 25° NW 19:51:56 10° N visible
08 Apr 4.9 02:50:08 10° N 02:55:22 35° NE 03:00:33 10° ESE visible
08 Apr 5.5 19:27:30 10° WSW 19:32:11 26° NW 19:36:55 10° N visible
09 Apr 5.0 02:35:06 10° N 02:40:17 34° NE 02:45:25 10° ESE visible
09 Apr 5.4 19:12:19 10° WSW 19:17:06 27° NW 19:21:54 10° N visible
10 Apr 5.0 02:20:06 10° N 02:25:12 32° NE 02:30:16 10° ESE visible
10 Apr 5.4 18:57:10 10° WSW 19:02:00 28° NW 19:06:54 10° N visible
11 Apr 5.1 02:05:05 10° N 02:10:07 31° NE 02:15:08 10° ESE visible
11 Apr 3.5 03:48:56 10° NW 03:54:19 44° WSW 03:59:39 10° S visible
11 Apr 5.4 18:42:00 10° WSW 18:46:56 30° NW 18:51:53 10° N visible
12 Apr 5.1 01:50:03 10° N 01:55:02 30° NE 01:59:59 10° ESE visible
12 Apr 3.5 03:33:51 10° NW 03:39:16 46° WSW 03:44:40 10° S visible
12 Apr 5.3 18:26:51 10° WSW 18:31:51 31° NW 18:36:53 10° N visible
